• In Uzbekistan
  • List of Countries
  • For 7 days
  • Water Temperature
  • Satellite Maps
  • Weather Map
  • Weather Widgets
  • user-avatar
    Login

    Hourly Weather Oran

    Today, 26 March, Sunday

    Time Temperature Precipitation Wind Pressure Humidity
    00:00 +9°C° 0 mm 1 mps 752 mmHg 75%
    01:00 +9°C° 0 mm 1 mps 752 mmHg 77%
    02:00 +8°C° 0 mm 1 mps 751 mmHg 78%
    03:00 +8°C° 0 mm 1 mps 751 mmHg 80%
    04:00 +8°C° 0 mm 1 mps 751 mmHg 80%
    05:00 +8°C° 0 mm 1 mps 751 mmHg 81%
    06:00 +7°C° 0 mm 1 mps 751 mmHg 81%
    07:00 +11°C° 0 mm 1 mps 751 mmHg 70%
    08:00 +14°C° 0 mm 1 mps 751 mmHg 58%
    09:00 +19°C° 0 mm 1 mps 752 mmHg 47%
    10:00 +19°C° 0 mm 2 mps 751 mmHg 43%
    11:00 +21°C° 0 mm 2 mps 751 mmHg 40%
    12:00 +22°C° 0 mm 3 mps 751 mmHg 37%
    13:00 +22°C° 0 mm 3 mps 750 mmHg 39%
    14:00 +23°C° 0 mm 4 mps 750 mmHg 41%
    15:00 +23°C° 0 mm 5 mps 749 mmHg 43%
    16:00 +21°C° 0 mm 4 mps 749 mmHg 52%
    17:00 +19°C° 0 mm 4 mps 748 mmHg 61%
    18:00 +17°C° 0 mm 4 mps 748 mmHg 70%
    19:00 +14°C° 0 mm 3 mps 749 mmHg 76%
    20:00 +13°C° 0 mm 2 mps 749 mmHg 83%
    21:00 +11°C° 0 mm 1 mps 750 mmHg 89%
    22:00 +10°C° 0 mm 2 mps 750 mmHg 88%
    23:00 +12°C° 0 mm 2 mps 750 mmHg 88%

    Tomorrow, 27 March, Monday

    Time Temperature Precipitation Wind Pressure Humidity
    00:00 +11°C° 0 mm 3 mps 751 mmHg 87%
    01:00 +11°C° 0 mm 3 mps 751 mmHg 89%
    02:00 +11°C° 0 mm 4 mps 751 mmHg 90%
    03:00 +11°C° 0 mm 4 mps 752 mmHg 92%
    04:00 +11°C° 0 mm 4 mps 752 mmHg 92%
    05:00 +11°C° 0 mm 4 mps 753 mmHg 92%
    06:00 +10°C° 0 mm 3 mps 753 mmHg 92%
    07:00 +12°C° 0 mm 3 mps 754 mmHg 82%
    08:00 +16°C° 0 mm 3 mps 755 mmHg 73%
    09:00 +18°C° 0 mm 3 mps 755 mmHg 63%
    10:00 +19°C° 0 mm 3 mps 755 mmHg 58%
    11:00 +20°C° 0 mm 4 mps 756 mmHg 54%
    12:00 +21°C° 0 mm 4 mps 756 mmHg 49%
    13:00 +21°C° 0 mm 4 mps 755 mmHg 49%
    14:00 +21°C° 0 mm 4 mps 755 mmHg 50%
    15:00 +21°C° 0 mm 4 mps 755 mmHg 50%
    16:00 +19°C° 0 mm 3 mps 755 mmHg 56%
    17:00 +18°C° 0 mm 3 mps 755 mmHg 63%
    18:00 +16°C° 0 mm 2 mps 756 mmHg 69%
    19:00 +15°C° 0 mm 2 mps 756 mmHg 75%
    20:00 +13°C° 0 mm 1 mps 757 mmHg 81%
    21:00 +11°C° 0 mm 1 mps 757 mmHg 86%
    22:00 +11°C° 0 mm 1 mps 757 mmHg 86%
    23:00 +11°C° 0 mm 1 mps 757 mmHg 86%

    Day after tomorrow, 28 March, Tuesday

    Time Temperature Precipitation Wind Pressure Humidity
    00:00 +9°C° 0 mm 0 mps 757 mmHg 85%
    01:00 +9°C° 0 mm 0 mps 757 mmHg 85%
    02:00 +9°C° 0 mm 0 mps 756 mmHg 85%
    03:00 +8°C° 0 mm 0 mps 756 mmHg 85%
    04:00 +8°C° 0 mm 0 mps 756 mmHg 85%
    05:00 +8°C° 0 mm 0 mps 757 mmHg 86%
    06:00 +9°C° 0 mm 1 mps 757 mmHg 86%
    07:00 +12°C° 0 mm 1 mps 757 mmHg 74%
    08:00 +15°C° 0 mm 1 mps 758 mmHg 61%
    09:00 +19°C° 0 mm 1 mps 758 mmHg 49%
    10:00 +20°C° 0 mm 2 mps 758 mmHg 45%
    11:00 +21°C° 0 mm 3 mps 758 mmHg 41%
    12:00 +22°C° 0 mm 3 mps 758 mmHg 37%
    13:00 +22°C° 0 mm 4 mps 758 mmHg 39%
    14:00 +22°C° 0 mm 5 mps 758 mmHg 40%
    15:00 +22°C° 0 mm 5 mps 757 mmHg 42%
    16:00 +20°C° 0 mm 5 mps 757 mmHg 49%
    17:00 +19°C° 0 mm 5 mps 758 mmHg 55%
    18:00 +17°C° 0 mm 4 mps 758 mmHg 62%
    19:00 +14°C° 0 mm 4 mps 758 mmHg 70%
    20:00 +13°C° 0 mm 3 mps 759 mmHg 78%
    21:00 +11°C° 0 mm 3 mps 759 mmHg 85%
    22:00 +10°C° 0 mm 3 mps 759 mmHg 85%
    23:00 +10°C° 0 mm 2 mps 759 mmHg 85%

    29 March, Wednesday

    Time Temperature Precipitation Wind Pressure Humidity
    00:00 +9°C° 0 mm 2 mps 759 mmHg 84%
    01:00 +9°C° 0 mm 2 mps 759 mmHg 84%
    02:00 +9°C° 0 mm 2 mps 758 mmHg 84%
    03:00 +8°C° 0 mm 2 mps 758 mmHg 84%
    04:00 +8°C° 0 mm 2 mps 758 mmHg 84%
    05:00 +8°C° 0 mm 3 mps 758 mmHg 85%
    06:00 +8°C° 0 mm 3 mps 759 mmHg 85%
    07:00 +11°C° 0 mm 3 mps 759 mmHg 71%
    08:00 +16°C° 0 mm 3 mps 759 mmHg 57%
    09:00 +19°C° 0 mm 3 mps 759 mmHg 43%
    10:00 +21°C° 0 mm 3 mps 759 mmHg 38%
    11:00 +22°C° 0 mm 4 mps 759 mmHg 33%
    12:00 +25°C° 0 mm 4 mps 758 mmHg 28%
    13:00 +25°C° 0 mm 5 mps 758 mmHg 29%
    14:00 +25°C° 0 mm 5 mps 757 mmHg 30%
    15:00 +24°C° 0 mm 6 mps 757 mmHg 32%
    16:00 +22°C° 0 mm 6 mps 757 mmHg 40%
    17:00 +20°C° 0 mm 5 mps 757 mmHg 48%
    18:00 +17°C° 0 mm 5 mps 757 mmHg 56%
    19:00 +15°C° 0 mm 5 mps 757 mmHg 62%
    20:00 +13°C° 0 mm 4 mps 758 mmHg 68%
    21:00 +12°C° 0 mm 4 mps 758 mmHg 74%
    22:00 +12°C° 0 mm 4 mps 758 mmHg 73%
    23:00 +11°C° 0 mm 3 mps 758 mmHg 73%

    30 March, Thursday

    Time Temperature Precipitation Wind Pressure Humidity
    00:00 +11°C° 0 mm 3 mps 757 mmHg 72%
    01:00 +11°C° 0 mm 3 mps 757 mmHg 71%
    02:00 +11°C° 0 mm 3 mps 757 mmHg 69%
    03:00 +11°C° 0 mm 3 mps 756 mmHg 68%
    04:00 +12°C° 0 mm 2 mps 756 mmHg 68%
    05:00 +10°C° 0 mm 2 mps 756 mmHg 67%
    06:00 +10°C° 0 mm 2 mps 756 mmHg 67%
    07:00 +15°C° 0 mm 2 mps 757 mmHg 55%
    08:00 +18°C° 0 mm 2 mps 757 mmHg 44%
    09:00 +23°C° 0 mm 2 mps 757 mmHg 32%
    10:00 +25°C° 0 mm 3 mps 757 mmHg 30%
    11:00 +26°C° 0 mm 3 mps 757 mmHg 28%
    12:00 +27°C° 0 mm 3 mps 756 mmHg 27%
    13:00 +27°C° 0 mm 4 mps 756 mmHg 28%
    14:00 +27°C° 0 mm 4 mps 756 mmHg 30%
    15:00 +27°C° 0 mm 4 mps 755 mmHg 32%
    16:00 +25°C° 0 mm 4 mps 755 mmHg 40%
    17:00 +21°C° 0 mm 3 mps 755 mmHg 48%
    18:00 +19°C° 0 mm 2 mps 756 mmHg 56%
    19:00 +17°C° 0 mm 2 mps 756 mmHg 61%
    20:00 +16°C° 0 mm 1 mps 756 mmHg 67%
    21:00 +14°C° 0 mm 1 mps 757 mmHg 72%
    22:00 +14°C° 0 mm 1 mps 757 mmHg 73%
    23:00 +13°C° 0 mm 1 mps 756 mmHg 74%

    31 March, Friday

    Time Temperature Precipitation Wind Pressure Humidity
    00:00 +13°C° 0 mm 1 mps 756 mmHg 75%
    01:00 +13°C° 0 mm 1 mps 756 mmHg 76%
    02:00 +12°C° 0 mm 1 mps 756 mmHg 77%
    03:00 +12°C° 0 mm 1 mps 756 mmHg 78%
    04:00 +11°C° 0 mm 0 mps 756 mmHg 78%
    05:00 +11°C° 0 mm 0 mps 756 mmHg 78%
    06:00 +10°C° 0 mm 0 mps 756 mmHg 77%
    07:00 +14°C° 0 mm 0 mps 756 mmHg 65%
    08:00 +20°C° 0 mm 1 mps 756 mmHg 52%
    09:00 +24°C° 0 mm 1 mps 757 mmHg 40%
    10:00 +25°C° 0 mm 2 mps 756 mmHg 37%
    11:00 +26°C° 0 mm 3 mps 756 mmHg 35%
    12:00 +28°C° 0 mm 4 mps 756 mmHg 32%
    13:00 +27°C° 0 mm 4 mps 756 mmHg 34%
    14:00 +26°C° 0 mm 4 mps 755 mmHg 36%
    15:00 +26°C° 0 mm 4 mps 755 mmHg 38%
    16:00 +23°C° 0 mm 4 mps 755 mmHg 44%
    17:00 +21°C° 0 mm 4 mps 755 mmHg 50%
    18:00 +20°C° 0 mm 4 mps 755 mmHg 56%
    19:00 +19°C° 0 mm 4 mps 756 mmHg 54%
    20:00 +19°C° 0 mm 4 mps 756 mmHg 52%
    21:00 +17°C° 0 mm 5 mps 756 mmHg 50%
    22:00 +17°C° 0 mm 5 mps 756 mmHg 50%
    23:00 +16°C° 0 mm 5 mps 756 mmHg 50%
    Show more